When you browse on this site, cookies collect data to enhance your experience and personalize the content and advertising you see.
Visit our Privacy Policy to learn more. By continuing to use the site, you agree to this use of cookies and data.
  • In Latvia
  • List of Countries
  • For 7 days
  • Water Temperature
  • Satellite Maps
  • Weather Map
  • Weather Widgets
  • user-avatar
    Login

    Hourly Weather Kalgoorlie

    Today, 23 July, Tuesday

    Time Temperature Precipitation Wind Pressure Humidity
    00:00 +9°C° 0 mm 3 mps 734 mmHg 73%
    01:00 +8°C° 0 mm 3 mps 734 mmHg 74%
    02:00 +8°C° 0 mm 3 mps 734 mmHg 76%
    03:00 +8°C° 0 mm 2 mps 734 mmHg 77%
    04:00 +7°C° 0 mm 2 mps 734 mmHg 79%
    05:00 +7°C° 0 mm 2 mps 734 mmHg 80%
    06:00 +7°C° 0 mm 2 mps 735 mmHg 79%
    07:00 +8°C° 0 mm 2 mps 735 mmHg 77%
    08:00 +8°C° 0 mm 2 mps 735 mmHg 76%
    09:00 +10°C° 0 mm 3 mps 736 mmHg 69%
    10:00 +12°C° 0 mm 3 mps 736 mmHg 62%
    11:00 +14°C° 0 mm 3 mps 736 mmHg 56%
    12:00 +15°C° 0 mm 2 mps 736 mmHg 53%
    13:00 +16°C° 0 mm 1 mps 735 mmHg 51%
    14:00 +18°C° 0 mm 1 mps 734 mmHg 49%
    15:00 +16°C° 0 mm 1 mps 735 mmHg 52%
    16:00 +16°C° 0 mm 1 mps 735 mmHg 54%
    17:00 +15°C° 0 mm 0 mps 735 mmHg 57%
    18:00 +15°C° 0 mm 1 mps 735 mmHg 59%
    19:00 +14°C° 0 mm 1 mps 735 mmHg 61%
    20:00 +13°C° 0 mm 1 mps 736 mmHg 63%
    21:00 +13°C° 0 mm 1 mps 736 mmHg 65%
    22:00 +12°C° 0 mm 1 mps 736 mmHg 67%
    23:00 +12°C° 0 mm 1 mps 736 mmHg 69%

    Tomorrow, 24 July, Wednesday

    Time Temperature Precipitation Wind Pressure Humidity
    00:00 +12°C° 0 mm 1 mps 736 mmHg 71%
    01:00 +11°C° 0 mm 1 mps 736 mmHg 73%
    02:00 +10°C° 0 mm 0 mps 735 mmHg 75%
    03:00 +11°C° 0 mm 1 mps 735 mmHg 74%
    04:00 +11°C° 0 mm 1 mps 735 mmHg 74%
    05:00 +10°C° 0 mm 1 mps 735 mmHg 74%
    06:00 +10°C° 0 mm 2 mps 736 mmHg 72%
    07:00 +12°C° 0 mm 2 mps 736 mmHg 69%
    08:00 +11°C° 0 mm 3 mps 736 mmHg 66%
    09:00 +13°C° 0 mm 3 mps 736 mmHg 60%
    10:00 +16°C° 0 mm 3 mps 736 mmHg 53%
    11:00 +17°C° 0 mm 4 mps 736 mmHg 46%
    12:00 +18°C° 0 mm 4 mps 735 mmHg 42%
    13:00 +19°C° 0 mm 4 mps 734 mmHg 38%
    14:00 +20°C° 0 mm 5 mps 733 mmHg 34%
    15:00 +19°C° 0 mm 4 mps 733 mmHg 36%
    16:00 +18°C° 0 mm 3 mps 733 mmHg 38%
    17:00 +18°C° 0 mm 3 mps 733 mmHg 40%
    18:00 +17°C° 0 mm 3 mps 733 mmHg 41%
    19:00 +16°C° 0 mm 3 mps 733 mmHg 43%
    20:00 +14°C° 0 mm 3 mps 733 mmHg 44%
    21:00 +14°C° 0 mm 3 mps 733 mmHg 46%
    22:00 +13°C° 0 mm 3 mps 733 mmHg 47%
    23:00 +13°C° 0 mm 3 mps 733 mmHg 48%

    Day after tomorrow, 25 July, Thursday

    Time Temperature Precipitation Wind Pressure Humidity
    00:00 +12°C° 0 mm 3 mps 733 mmHg 53%
    01:00 +11°C° 0 mm 3 mps 733 mmHg 57%
    02:00 +11°C° 0 mm 3 mps 733 mmHg 62%
    03:00 +10°C° 0 mm 3 mps 733 mmHg 66%
    04:00 +10°C° 0 mm 3 mps 733 mmHg 70%
    05:00 +10°C° 0 mm 3 mps 733 mmHg 74%
    06:00 +10°C° 0 mm 3 mps 733 mmHg 76%
    07:00 +10°C° 0 mm 3 mps 734 mmHg 77%
    08:00 +10°C° 0 mm 3 mps 734 mmHg 79%
    09:00 +12°C° 0 mm 4 mps 734 mmHg 70%
    10:00 +13°C° 0 mm 4 mps 735 mmHg 61%
    11:00 +15°C° 0 mm 4 mps 735 mmHg 52%
    12:00 +15°C° 0 mm 4 mps 734 mmHg 50%
    13:00 +17°C° 0 mm 4 mps 734 mmHg 47%
    14:00 +17°C° 0 mm 4 mps 734 mmHg 45%
    15:00 +15°C° 0 mm 5 mps 734 mmHg 50%
    16:00 +14°C° 0 mm 5 mps 734 mmHg 55%
    17:00 +14°C° 0 mm 6 mps 734 mmHg 60%
    18:00 +13°C° 0 mm 5 mps 735 mmHg 63%
    19:00 +12°C° 0 mm 5 mps 735 mmHg 66%
    20:00 +11°C° 0 mm 4 mps 736 mmHg 70%
    21:00 +10°C° 0 mm 4 mps 736 mmHg 70%
    22:00 +10°C° 0 mm 4 mps 736 mmHg 71%
    23:00 +8°C° 0 mm 4 mps 736 mmHg 72%

    26 July, Friday

    Time Temperature Precipitation Wind Pressure Humidity
    00:00 +8°C° 0 mm 4 mps 736 mmHg 73%
    01:00 +8°C° 0 mm 4 mps 736 mmHg 74%
    02:00 +7°C° 0 mm 4 mps 736 mmHg 75%
    03:00 +7°C° 0 mm 4 mps 736 mmHg 78%
    04:00 +7°C° 0 mm 4 mps 735 mmHg 80%
    05:00 +6°C° 0 mm 4 mps 735 mmHg 82%
    06:00 +6°C° 0 mm 4 mps 735 mmHg 81%
    07:00 +7°C° 0 mm 5 mps 735 mmHg 79%
    08:00 +7°C° 0 mm 5 mps 735 mmHg 77%
    09:00 +8°C° 0 mm 5 mps 735 mmHg 72%
    10:00 +10°C° 0 mm 6 mps 735 mmHg 66%
    11:00 +11°C° 0 mm 6 mps 735 mmHg 61%
    12:00 +12°C° 0 mm 5 mps 734 mmHg 59%
    13:00 +13°C° 0 mm 5 mps 733 mmHg 57%
    14:00 +14°C° 0 mm 5 mps 733 mmHg 56%
    15:00 +14°C° 0 mm 4 mps 732 mmHg 57%
    16:00 +13°C° 0 mm 3 mps 732 mmHg 59%
    17:00 +13°C° 0 mm 3 mps 732 mmHg 60%
    18:00 +14°C° 0 mm 2 mps 733 mmHg 63%
    19:00 +13°C° 0 mm 2 mps 733 mmHg 65%
    20:00 +13°C° 0 mm 2 mps 733 mmHg 67%
    21:00 +12°C° 0 mm 2 mps 733 mmHg 68%
    22:00 +11°C° 0 mm 3 mps 733 mmHg 69%
    23:00 +11°C° 0 mm 3 mps 732 mmHg 70%

    27 July, Saturday

    Time Temperature Precipitation Wind Pressure Humidity
    00:00 +10°C° 0 mm 3 mps 732 mmHg 71%
    01:00 +10°C° 0 mm 3 mps 732 mmHg 73%
    02:00 +10°C° 0 mm 3 mps 732 mmHg 75%
    03:00 +9°C° 0 mm 3 mps 731 mmHg 76%
    04:00 +9°C° 0 mm 3 mps 731 mmHg 76%
    05:00 +9°C° 0 mm 2 mps 731 mmHg 77%
    06:00 +9°C° 0 mm 2 mps 732 mmHg 75%
    07:00 +10°C° 0 mm 2 mps 732 mmHg 72%
    08:00 +10°C° 0 mm 3 mps 732 mmHg 70%
    09:00 +12°C° 0 mm 3 mps 732 mmHg 64%
    10:00 +15°C° 0 mm 2 mps 732 mmHg 58%
    11:00 +16°C° 0 mm 2 mps 732 mmHg 52%
    12:00 +17°C° 0 mm 2 mps 732 mmHg 49%
    13:00 +18°C° 0 mm 1 mps 731 mmHg 45%
    14:00 +17°C° 0 mm 0 mps 731 mmHg 41%
    15:00 +19°C° 0 mm 1 mps 731 mmHg 42%
    16:00 +18°C° 0 mm 1 mps 731 mmHg 44%
    17:00 +17°C° 0 mm 2 mps 731 mmHg 45%
    18:00 +16°C° 0 mm 3 mps 732 mmHg 48%
    19:00 +16°C° 0 mm 3 mps 732 mmHg 50%
    20:00 +14°C° 0 mm 4 mps 732 mmHg 53%
    21:00 +13°C° 0 mm 4 mps 732 mmHg 56%
    22:00 +13°C° 0 mm 4 mps 732 mmHg 58%
    23:00 +12°C° 0 mm 4 mps 732 mmHg 61%

    28 July, Sunday

    Time Temperature Precipitation Wind Pressure Humidity
    00:00 +12°C° 0 mm 4 mps 732 mmHg 64%
    01:00 +11°C° 0 mm 3 mps 732 mmHg 67%
    02:00 +10°C° 0 mm 3 mps 732 mmHg 71%
    03:00 +10°C° 0 mm 3 mps 732 mmHg 72%
    04:00 +10°C° 0 mm 3 mps 732 mmHg 74%
    05:00 +9°C° 0 mm 3 mps 732 mmHg 76%
    06:00 +9°C° 0 mm 3 mps 733 mmHg 75%
    07:00 +10°C° 0 mm 3 mps 733 mmHg 75%
    08:00 +10°C° 0 mm 3 mps 734 mmHg 75%
    09:00 +12°C° 0 mm 2 mps 734 mmHg 67%
    10:00 +14°C° 0 mm 2 mps 734 mmHg 60%
    11:00 +16°C° 0 mm 1 mps 734 mmHg 52%
    12:00 +16°C° 0 mm 1 mps 733 mmHg 49%
    13:00 +18°C° 0 mm 1 mps 733 mmHg 46%
    14:00 +19°C° 0 mm 1 mps 733 mmHg 43%
    15:00 +19°C° 0 mm 1 mps 733 mmHg 44%
    16:00 +19°C° 0 mm 1 mps 733 mmHg 45%
    17:00 +19°C° 0 mm 1 mps 733 mmHg 46%
    18:00 +18°C° 0 mm 1 mps 734 mmHg 47%
    19:00 +16°C° 0 mm 2 mps 734 mmHg 48%
    20:00 +16°C° 0 mm 2 mps 735 mmHg 50%
    21:00 +15°C° 0 mm 2 mps 735 mmHg 55%
    22:00 +13°C° 0 mm 3 mps 735 mmHg 60%
    23:00 +12°C° 0 mm 4 mps 735 mmHg 66%
    Show more